Astoria, OR

5:50 AM PST on December 09, 2016 (GMT -0800)
Astoria Regional

Weather History for KAST - October, 2011

Change the Weather History Date:

Saturday, October 8, 2011

  Actual Average Record
Temperature  
Mean Temperature 58 °F 54 °F  
Max Temperature 62 °F 63 °F 81 °F (1971)
Min Temperature 54 °F 45 °F 33 °F (1985)
Degree Days  
Heating Degree Days 7 11  
Month to date heating degree days 79 81  
Since 1 July heating degree days 528 562  
Cooling Degree Days 0 0  
Month to date cooling degree days 0 0  
Year to date cooling degree days 6 12  
Growing Degree Days 8 (Base 50)    
Moisture  
Dew Point 53 °F    
Average Humidity 84    
Maximum Humidity 100    
Minimum Humidity 67    
Precipitation  
Precipitation T in 0.14 in 2.80 in (1962)
Month to date precipitation 1.01 1.01  
Year to date precipitation 50.69 41.25  
Snow  
Snow 0.00 in - - ()
Month to date snowfall 0.0  
Snow Depth 0.00 in    
Sea Level Pressure  
Sea Level Pressure 30.16 in    
Wind  
Wind Speed 5 mph (South)    
Max Wind Speed 17 mph    
Max Gust Speed 23 mph    
Visibility 9 miles    
Events Rain    
T = Trace of Precipitation, MM = Missing Value Source: NWS Daily Summary

Daily Weather History Graph

Daily Weather History Graph

Search for Another Location

Airport or City:

Trip Planner

Search our weather history database for the weather conditions in past years. The results will help you decide how hot, cold, wet, or windy it might be!

Date:

Astronomy

Oct. 08, 2011 Rise Set
Actual Time 7:22 AM PDT 6:42 PM PDT
Civil Twilight 6:52 AM PDT 7:12 PM PDT
Nautical Twilight 6:18 AM PDT 7:46 PM PDT
Astronomical Twilight 5:43 AM PDT 8:21 PM PDT
Moon 5:02 PM PDT (10/8) 4:07 AM PDT (10/8)
Length of Visible Light 12h 19m
Length of Day
11h 19m
Waxing Gibbous, 90% of the Moon is Illuminated
Oct 8
Waxing Gibbous
Oct 11
Full
Oct 19
Last Quarter
Oct 26
New
Nov 2
First Quarter

Hourly Weather History & Observations

Time (PDT) Temp. Dew Point Humidity Pressure Visibility Wind Dir Wind Speed Gust Speed Precip Events Conditions
12:21 AM 57.2 °F 55.4 °F 94% 30.19 in 10.0 mi Calm Calm - N/A   Overcast
12:55 AM 57.0 °F 55.9 °F 96% 30.19 in 10.0 mi Calm Calm - N/A   Overcast
1:55 AM 57.0 °F 55.0 °F 93% 30.20 in 8.0 mi Calm Calm - 0.00 in Rain Light Rain
2:16 AM 55.4 °F 55.4 °F 100% 30.20 in 6.0 mi Calm Calm - 0.00 in Rain Light Rain
2:55 AM 55.9 °F 55.0 °F 97% 30.20 in 10.0 mi SSE 3.5 mph - 0.00 in   Overcast
3:23 AM 55.4 °F 55.4 °F 100% 30.19 in 9.0 mi SE 3.5 mph - 0.00 in   Overcast
3:55 AM 55.9 °F 55.0 °F 97% 30.19 in 9.0 mi Calm Calm - 0.00 in   Overcast
4:55 AM 55.9 °F 55.0 °F 97% 30.18 in 9.0 mi Calm Calm - N/A   Overcast
5:55 AM 55.9 °F 54.0 °F 93% 30.18 in 10.0 mi Calm Calm - 0.00 in   Overcast
6:55 AM 54.0 °F 54.0 °F 100% 30.17 in 10.0 mi Calm Calm - N/A   Overcast
7:55 AM 55.0 °F 55.0 °F 100% 30.18 in 10.0 mi Calm Calm - N/A   Overcast
8:55 AM 55.9 °F 55.0 °F 97% 30.17 in 10.0 mi East 4.6 mph - N/A   Overcast
9:55 AM 57.9 °F 55.9 °F 93% 30.17 in 10.0 mi Calm Calm - N/A   Overcast
10:55 AM 59.0 °F 55.0 °F 87% 30.17 in 10.0 mi Calm Calm - N/A   Overcast
11:06 AM 60.8 °F 55.4 °F 82% 30.17 in 10.0 mi Calm Calm - N/A   Overcast
11:22 AM 59.0 °F 53.6 °F 82% 30.17 in 10.0 mi Variable 4.6 mph - N/A   Overcast
11:55 AM 59.0 °F 55.0 °F 87% 30.17 in 10.0 mi SW 9.2 mph - N/A   Overcast
12:01 PM 57.2 °F 53.6 °F 88% 30.17 in 10.0 mi SW 5.8 mph - N/A   Overcast
12:55 PM 61.0 °F 54.0 °F 78% 30.15 in 10.0 mi SSW 10.4 mph - N/A   Overcast
1:55 PM 62.1 °F 51.1 °F 67% 30.14 in 10.0 mi SSW 10.4 mph 16.1 mph N/A   Mostly Cloudy
2:55 PM 61.0 °F 51.1 °F 70% 30.13 in 10.0 mi SW 13.8 mph 20.7 mph N/A   Scattered Clouds
3:55 PM 60.1 °F 50.0 °F 69% 30.13 in 10.0 mi SW 12.7 mph 21.9 mph N/A   Mostly Cloudy
4:55 PM 59.0 °F 50.0 °F 72% 30.12 in 10.0 mi SSW 9.2 mph - N/A   Partly Cloudy
5:55 PM 59.0 °F 48.9 °F 69% 30.11 in 10.0 mi South 6.9 mph - N/A   Overcast
6:55 PM 57.9 °F 48.9 °F 72% 30.11 in 10.0 mi South 4.6 mph - N/A   Overcast
7:55 PM 57.9 °F 50.0 °F 75% 30.12 in 10.0 mi SSW 5.8 mph - 0.00 in Rain Light Rain
8:55 PM 55.9 °F 52.0 °F 87% 30.12 in 10.0 mi South 3.5 mph - 0.00 in   Overcast
9:55 PM 54.0 °F 52.0 °F 93% 30.12 in 7.0 mi SSE 3.5 mph - 0.07 in Rain Light Rain
10:55 PM 54.0 °F 53.1 °F 97% 30.11 in 7.0 mi Calm Calm - 0.09 in Rain Rain
11:37 PM 53.6 °F 53.6 °F 100% 30.10 in 10.0 mi East 3.5 mph - 0.01 in   Overcast
11:55 PM 54.0 °F 53.1 °F 97% 30.10 in 3.0 mi Calm Calm - 0.01 in Rain Light Rain